TUSUR GO (RS78S)

Last updated on Mon Sep 15 2025 00:03:09 GMT+0000 (Coordinated Universal Time)

1 61782U 24199AZ 25257.27988598 .00024562 00000+0 58129-3 0 9992 2 61782 97.3360 126.3854 0011805 192.6137 167.4816 15.41713648 91831
UTC large
Height (km)
Speed (km/s)
/
Latitude / Longitude
Inclination (degrees)
Orbital Period (minutes)
Azimuth
Elevation
Range (km)
Doppler Factor

Next 0 passes for location: London (51.5072 / 0.1276)

Sorry there are no passes over London.